This is the latest recevied weather packets stored in our database for station/object SA3ARQ-13. If no packets are shown the sender has not sent any weather packets the latest 10 day(s).
| Time | Temp. | Humidity | Pressure | Rain* | Wind** | Luminosity | Snow |
|---|---|---|---|---|---|---|---|
| 1777937844 | 11.67° C | 47% | 1001.3 hPa | - | - | - | - |
| 1777936943 | 12.22° C | 47% | 1000.6 hPa | - | - | - | - |
| 1777936044 | 12.22° C | 47% | 999.5 hPa | - | - | - | - |
| 1777935144 | 12.22° C | 47% | 1000.4 hPa | - | - | - | - |
| 1777934243 | 12.22° C | 47% | 999.6 hPa | - | - | - | - |
| 1777933343 | 12.78° C | 46% | 999.6 hPa | - | - | - | - |
| 1777932443 | 12.78° C | 46% | 999.6 hPa | - | - | - | - |
| 1777931543 | 12.78° C | 46% | 1000.1 hPa | - | - | - | - |
| 1777930642 | 13.33° C | 46% | 999.8 hPa | - | - | - | - |
| 1777929742 | 13.33° C | 46% | 999.7 hPa | - | - | - | - |
| 1777928842 | 13.33° C | 45% | 999.7 hPa | - | - | - | - |
| 1777927942 | 13.89° C | 45% | 999.8 hPa | - | - | - | - |
| 1777927042 | 13.89° C | 45% | 1000 hPa | - | - | - | - |
| 1777926142 | 13.89° C | 45% | 999.9 hPa | - | - | - | - |
| 1777925242 | 14.44° C | 45% | 1000.2 hPa | - | - | - | - |
| 1777924342 | 15° C | 44% | 1000.2 hPa | - | - | - | - |
| 1777923442 | 15° C | 44% | 1000.3 hPa | - | - | - | - |
| 1777922542 | 15° C | 44% | 1000.2 hPa | - | - | - | - |
| 1777921642 | 15.56° C | 44% | 1000.2 hPa | - | - | - | - |
| 1777920742 | 16.11° C | 44% | 1000 hPa | - | - | - | - |
| 1777919842 | 16.11° C | 44% | 999.8 hPa | - | - | - | - |
| 1777918942 | 16.67° C | 44% | 999.7 hPa | - | - | - | - |
| 1777918042 | 17.22° C | 44% | 999.6 hPa | - | - | - | - |
| 1777917142 | 17.22° C | 44% | 999.5 hPa | - | - | - | - |
| 1777916242 | 17.78° C | 44% | 999.1 hPa | - | - | - | - |
* Rain since midnight (hover to see other rain measurements)
** Current wind speed in m/s (hover to see current wind gust speed)